CZ-4B DEB, 43660

Orbit data source: Space-Track

CZ-4B DEB, 43660 is space debris in SSO originally from a launch on Wed, 24 Oct 2018 UTC launched from the Taiyaun Space Center, China (TSC). Debris objects in space refer to the collection of defunct objects orbiting the Earth. Examples of debris include non-operational satellites, rocket bodies, and fragments generated from explosions, collisions, or faulty payload assembly.

Loading next visibility...
Identifier
43660, 2018-081D
Orbit
SSO
Country
Flag of CNCN / PRC
Related business
Manufacturer
SAST
Mission
Spacecraft
Bus & Motor
Unknown
Mass
Unknown
Launch date (UTC)
2018-10-24 (7 years ago)
Launch vehicle
Unknown
Launch site
Taiyaun Space Center, China (TSC)
Object type
Payload
Rocket body
Debris
Shape & HBR
Unknown shape, 0.1 m
Radar Cross Section
Small (<0.1 m²)

Expand to show TLE details & history
Last TLE update: 23 hours ago

TLE from 23 hours ago
0 CZ-4B DEB
1 43660U 18081D   25354.03606358  .00000074  00000-0  94669-4 0  9996
2 43660  99.1283  20.8497 0014037 122.2795 237.9726 13.90547191363015
Epoch: 2025-12-20T00:51Z
TLE epoch observation values (Epoch: 2025-12-20T00:51:55.893Z)
Latitude
0.00002°
Longitude
-81.00183°
Altitude
935.024 km
Speed
7.382 km/s
True Right ascension
01h 23m 23s
True Declination
0° 00' 00"
Sunlit
Object was in daylight at epoch
Visualization orbit readout
Latitude
Unknown
Longitude
Unknown
Altitude
Unknown
Speed
Unknown
Apparent Right ascension
Unknown
Apparent Declination
Unknown
Sunlit
N/A
Visualization observer readout
Local Sidereal Time
22:21:58
Azimuth
Unknown
Elevation
Unknown
Doppler factor
Unknown
Orbital elements
Apogee altitude
934.182 km
Perigee altitude
913.682 km
Semi-major axis
7,302.069 km
Eccentricity
0.0014
Inclination
99.1283°
RAAN
20.8497°
Arg. of periapsis
122.2795°
True anomaly
237.83636°
Mean anomaly
237.9726°
Eccentric anomaly
237.90447°
Mean motion
3.47836 °/min
Orbital period
103.5 mins
BSTAR
0.000094669
Loading maneuver chart data...
Computing Atmospheric mass density...
Loading historical data...
Loading historical data...
Loading historical data...
Loading historical data...
Loading historical data...
Loading historical data...
Loading historical data...

Documentation

Showing up to 5 results
|